Lid_Strength_Index
-1 -2 -2 -2 -2 -2 -1 -1 -1 -1 -1 -1 -1 -1 -1 -1 -1 -1 -1 -1 -1 -1 -1 -1 -1 -1 -1 -1 -1 -1 -1 -1 -1
-1 -2 -2 -2 -2 -2 -2 -2 -1 -1 -1 -1 -1 -1 -1 -1 -1 -1 -1 -1 -1 -1 -1 -1 -1 -1 -1 -1 -1 -1 -1 -1 -1
-1 -1 -1 -2 -2 -2 -2 -2 -2 -1 -1 -1 -1 -1 -1 -1 -1 -1 -1 -1 -1 -1 -1 -1 -1 -1 -1 -1 -1 -1 -1 -1 -1
-1 -1 -1 -1 -1 -1 -1 -2 -2 -2 -2 -1 -1 -1 -1 -1 -1 -1 -1 -1 -1 -1 -1 -1 -1 -1 -1 -1 -1 -1 -1 -1 -1
-1 -1 -1 -1 -1 -1 -1 -1 -1 -1 -1 -2 -2 -1 -1 -1 -1 -1 -1 -1 -1 -2 -1 -1 -1 -1 -1 -1 -1 -1 -1 -1 -1
2 0 -1 -2 -2 -2 -2 -2 -1 -1 -1 -1 -2 -1 -1 -1 -1 -1 -1 -1 -2 -2 -2 -1 -1 -1 -1 -1 -1 -1 -1 -1 -1
4 4 3 3 1 0 0 -1 -0 -0 -0 0 0 -0 -1 -1 -1 -1 -1 -2 -2 -2 -2 -2 -1 -1 -1 -1 -1 -1 -1 -1 -1
5 5 5 6 4 4 4 3 2 1 1 1 0 0 0 1 -0 -1 -1 -2 -2 -2 -2 -2 -2 -1 -1 -1 -1 -1 -1 -1 -1
5 5 5 5 4 5 4 4 4 4 4 3 2 2 2 1 1 1 2 -0 -2 -2 -2 -2 -2 -1 -1 -1 -1 -1 -1 -1 -1
6 6 6 5 5 5 5 5 5 4 4 4 4 4 4 3 2 2 2 2 0 -1 -2 -2 -2 -2 -1 -1 -2 -2 -2 -1 -1
6 6 6 6 6 6 6 6 5 5 5 5 4 4 4 3 4 4 3 2 1 1 -1 -2 -2 -2 -2 -2 -2 -2 -2 -2 -2
6 6 7 7 6 6 6 6 6 6 6 6 5 5 4 4 4 4 4 4 3 3 2 -1 -2 -2 -2 -2 -2 -2 -2 -2 -2
6 6 7 7 6 6 6 7 7 7 7 6 6 5 5 5 4 4 4 3 3 2 1 -0 -1 -2 -2 -2 -2 -2 -2 -2 -2
6 6 7 7 7 7 7 7 7 8 7 7 7 6 6 5 5 5 4 3 2 2 1 1 -0 -1 -2 -2 -2 -2 -2 -2 -2
6 6 7 7 7 7 8 8 8 8 8 8 8 7 7 6 6 5 5 3 2 3 2 1 1 1 -1 -2 -2 -2 -2 -2 -2
6 6 7 7 7 8 8 8 8 8 8 8 8 8 7 6 5 4 5 4 4 3 4 3 3 2 1 -0 -2 -2 -2 -2 -2
7 7 7 7 8 8 8 8 9 8 8 9 9 10 9 6 4 5 5 5 4 4 4 3 4 3 1 1 0 -1 -1 -2 -2
8 7 8 8 8 8 8 8 8 9 8 7 9 11 11 9 7 6 5 5 5 4 4 4 4 3 2 1 0 1 -0 -2 -2
8 8 8 8 8 8 7 7 7 7 9 7 7 7 8 10 11 7 6 6 6 5 5 4 3 3 2 1 0 -0 1 0 -2
8 8 7 7 7 7 7 7 7 7 8 8 8 8 8 7 9 11 9 7 6 5 5 4 4 3 2 2 1 0 1 0 -0